Flag for Iran Weather past 2 weeks in Bandar-Abbas, Iran

Now
91 °F

Haze.


Feels Like: 97 °F
Forecast: 75 / 94 °F
Wind: 9 mph from Southwest

Location: Bandarabbass

Current Time: Apr 27, 2015 at 9:50:13 PM

Latest Report: Apr 27, 2015 at 9:30 PM


Visibility: 2 mi

Pressure: 29.77 "Hg

Humidity: 49%

Dew point: 70 °F

Location of Bandar-AbbasLocation

Historic Weather in Bandar-Abbas — Graph

°F

Bandar-Abbas temperature yesterday

Maximum temperature yesterday: 93 °F (at 5:30 PM)
Minimum temperature yesterday: 77 °F (at 5:30 AM)
Average temperature yesterday: 85 °F

Past Weeks' High & Low Weather Summary

 TemperatureHumidityPressure
High104 °F (Apr 27, 1:30 PM)94% (Apr 15, 3:30 AM)29.98 "Hg (Apr 15, 3:30 AM)
Low72 °F (Apr 13, 7:30 AM)19% (Apr 27, 1:30 PM)29.62 "Hg (Apr 18, 6:30 PM)
Average85 °F64%29.79 "Hg
* Reported Apr 12 8:30 PM — Apr 27 8:30 PM, Bandar-Abbas, Weather by CustomWeather, © 2015

Note: Actual official high and low records may vary slightly from our data, if they occured in-between our weather recording intervals... More about our weather records

Advertising

Bandar-Abbas weather history for previous 24 hours

 ConditionsComfort  
Time TempWeatherWind HumidityBarometerVisibility
8:30 PM
Mon, Apr 27
99 °FHaze.9 mph37%29.74 "Hg2 mi
8:00 PM91 °FHaze.9 mph46%29.74 "Hg2 mi
7:30 PM91 °FHaze.9 mph44%29.74 "Hg1 mi
7:00 PM95 °FHaze.9 mph25%29.74 "Hg1 mi
6:30 PM95 °FHaze.9 mph28%29.74 "Hg1 mi
6:00 PM95 °FHaze.12 mph34%29.74 "Hg1 mi
5:30 PM95 °FHaze.12 mph39%29.74 "Hg1 mi
5:00 PM97 °FHaze.12 mph37%29.74 "Hg1 mi
4:30 PM99 °FSunny.14 mph35%29.74 "Hg1 mi
4:00 PM100 °FHaze.14 mph25%29.74 "Hg1 mi
3:30 PM100 °FSunny.9 mph24%29.74 "Hg1 mi
3:00 PM99 °FHaze.14 mph29%29.77 "Hg1 mi
2:30 PM99 °FSandstorm.16 mph31%29.77 "Hg1 mi
2:00 PM100 °FHaze.12 mph29%29.77 "Hg1 mi
1:30 PM104 °FHaze.7 mph19%29.80 "Hg1 mi
1:00 PM102 °FHaze.5 mph21%29.80 "Hg1 mi
12:30 PM100 °FHaze.12 mph25%29.83 "Hg1 mi
12:00 PM100 °FHaze.5 mph25%29.83 "Hg1 mi
11:30 AM99 °FHaze.9 mph27%29.83 "Hg1 mi
11:00 AM97 °FHaze.7 mph27%29.83 "Hg1 mi
10:30 AM97 °FHaze.5 mph32%29.83 "Hg2 mi
10:00 AM95 °FHaze.5 mph32%29.83 "Hg2 mi
9:30 AM95 °FHaze.5 mph30%29.83 "Hg1 mi
9:00 AM93 °FHaze.5 mph32%29.83 "Hg1 mi
8:30 AM88 °FHaze.5 mph52%29.80 "Hg1 mi
8:00 AM84 °FHaze.No wind58%29.80 "Hg1 mi
7:30 AM77 °FHaze.5 mph69%29.80 "Hg1 mi
7:00 AM75 °FHaze.No wind78%29.80 "Hg1 mi
6:30 AM75 °FFog.5 mph83%29.77 "Hg1 mi
5:30 AM77 °FFog.5 mph89%29.77 "Hg1 mi
4:30 AM79 °FFog.5 mph84%29.77 "Hg1 mi
3:30 AM79 °FFog.7 mph89%29.77 "Hg2 mi
2:30 AM79 °FFog.5 mph84%29.77 "Hg2 mi
2:00 AM79 °FFog.No wind89%29.77 "Hg2 mi
1:30 AM81 °FFog.No wind84%29.77 "Hg2 mi
1:00 AM81 °FFog.No wind84%29.77 "Hg2 mi
12:30 AM79 °FFog.No wind89%29.77 "Hg2 mi
12:00 AM79 °FFog.No wind89%29.77 "Hg2 mi
11:30 PM
Sun, Apr 26
81 °FFog.No wind84%29.77 "Hg2 mi
11:00 PM81 °FFog.No wind84%29.77 "Hg2 mi
10:30 PM82 °FFog.No wind84%29.77 "Hg2 mi
10:00 PM84 °FFog.5 mph79%29.77 "Hg2 mi
9:30 PM86 °FHaze.5 mph70%29.74 "Hg3 mi
9:00 PM84 °FHaze.5 mph74%29.74 "Hg3 mi
Weather by CustomWeather, © 2015

See weather overviewHow to use our weather pages